Medicine Lodge, KS

12:37 AM CDT on May 23, 2017 (GMT -0500)
Medicine Lodge

Weather History for KP28 - October, 2012

Change the Weather History Date:

Thursday, October 4, 2012

  Actual Average Record
Temperature  
Mean Temperature 59 °F 64 °F  
Max Temperature 66 °F 76 °F 99 °F (1954)
Min Temperature 52 °F 51 °F 32 °F (1902)
Degree Days  
Heating Degree Days 6 4  
Month to date heating degree days 17 16  
Since 1 July heating degree days 29 50  
Cooling Degree Days 0 3  
Month to date cooling degree days 0 12  
Year to date cooling degree days 2212 1743  
Growing Degree Days 8 (Base 50)    
Moisture  
Dew Point 39 °F    
Average Humidity 55    
Maximum Humidity 75    
Minimum Humidity 34    
Precipitation  
Precipitation 0.00 in 0.09 in 1.06 in (1998)
Month to date precipitation 0.00 0.35  
Year to date precipitation 16.87 22.80  
Snow  
Snow 0.00 in 0.00 in - ()
Month to date snowfall 0.0 0.0  
Since 1 July snowfall 0.0 0.0  
Since 1 September snowfall 0.0 0.0  
Snow Depth -    
Sea Level Pressure  
Sea Level Pressure 30.16 in    
Wind  
Wind Speed 14 mph (NNE)    
Max Wind Speed 26 mph    
Max Gust Speed 34 mph    
T = Trace of Precipitation, MM = Missing Value Source: NWS Daily Summary

Daily Weather History Graph

Daily Weather History Graph

Search for Another Location

Airport or City:

Trip Planner

Search our weather history database for the weather conditions in past years. The results will help you decide how hot, cold, wet, or windy it might be!

Date:

Astronomy

Oct. 04, 2012 Rise Set
Actual Time 7:32 AM CDT 7:12 PM CDT
Civil Twilight 7:06 AM CDT 7:38 PM CDT
Nautical Twilight 6:36 AM CDT 8:08 PM CDT
Astronomical Twilight 6:06 AM CDT 8:38 PM CDT
Moon 9:55 PM CDT (10/4) 11:45 AM CDT (10/4)
Length of Visible Light 12h 31m
Length of Day
11h 39m
Waning Gibbous, 82% of the Moon is Illuminated
Oct 4
Waning Gibbous
Oct 8
Last Quarter
Oct 15
New
Oct 21
First Quarter
Oct 29
Full

Hourly Weather History & Observations

Time (CDT) Temp. Dew Point Humidity Pressure Visibility Wind Dir Wind Speed Gust Speed Precip Events Conditions
12:56 AM 64.0 °F 51.1 °F 63% 29.91 in - SE 6.9 mph - N/A   Unknown
1:56 AM 63.0 °F 51.1 °F 65% 29.93 in - SE 5.8 mph - N/A   Unknown
2:56 AM 59.0 °F 51.1 °F 75% 30.00 in - NNW 5.8 mph - N/A   Unknown
3:56 AM 59.0 °F 51.1 °F 75% 30.01 in - NNE 5.8 mph - N/A   Unknown
4:56 AM 57.9 °F 44.1 °F 60% 30.04 in - North 21.9 mph 32.2 mph N/A   Unknown
5:56 AM 55.0 °F 41.0 °F 59% 30.09 in - North 20.7 mph 31.1 mph N/A   Unknown
6:56 AM 53.1 °F 39.0 °F 59% 30.13 in - North 20.7 mph 33.4 mph N/A   Unknown
7:56 AM 52.0 °F 39.0 °F 61% 30.17 in - North 20.7 mph 28.8 mph N/A   Unknown
8:56 AM 53.1 °F 37.9 °F 57% 30.21 in - North 20.7 mph 31.1 mph N/A   Unknown
9:56 AM 53.1 °F 37.0 °F 55% 30.23 in - North 23.0 mph 29.9 mph N/A   Unknown
10:56 AM 55.0 °F 36.0 °F 49% 30.24 in - North 20.7 mph 28.8 mph N/A   Unknown
11:56 AM 55.9 °F 35.1 °F 45% 30.25 in - North 20.7 mph 29.9 mph N/A   Unknown
12:56 PM 60.1 °F 35.1 °F 39% 30.24 in - NNE 21.9 mph 27.6 mph N/A   Unknown
1:56 PM 62.1 °F 35.1 °F 37% 30.22 in - North 13.8 mph 24.2 mph N/A   Unknown
2:56 PM 64.0 °F 35.1 °F 34% 30.20 in - NNE 16.1 mph 24.2 mph N/A   Unknown
3:56 PM 64.9 °F 35.1 °F 33% 30.19 in - NNE 12.7 mph - N/A   Unknown
4:56 PM 64.0 °F 35.1 °F 34% 30.19 in - NE 10.4 mph - N/A   Unknown
5:56 PM 62.1 °F 34.0 °F 35% 30.19 in - NE 10.4 mph - N/A   Unknown
6:56 PM 60.1 °F 35.1 °F 39% 30.20 in - NE 12.7 mph - N/A   Unknown
7:56 PM 59.0 °F 35.1 °F 41% 30.21 in - NE 10.4 mph - N/A   Unknown
8:56 PM 57.0 °F 37.0 °F 47% 30.22 in - East 8.1 mph - N/A   Unknown
9:56 PM 55.9 °F 37.9 °F 51% 30.23 in - ENE 5.8 mph - N/A   Unknown
10:56 PM 55.9 °F 37.9 °F 51% 30.25 in - ENE 6.9 mph - N/A   Unknown
11:56 PM 55.9 °F 37.9 °F 51% 30.24 in - NE 6.9 mph - N/A   Unknown